"Time","Temp","Dewpoint","Humidity","Pressure","Direction","Speed","Gust","Precip","PrecipRate"
"00:04:56","59.4","54","82.6","29.75","255","0","1.2","0.00","0.00"
"00:09:57","59.4","54.2","83","29.75","255","0","1.2","0.00","0.00"
"00:14:56","59.4","54.2","83","29.76","255","0","0","0.00","0.00"
"00:19:59","59.3","54.1","83","29.76","255","0","0","0.00","0.00"
"00:24:56","59.1","54.1","83.7","29.76","255","0","0","0.00","0.00"
"00:29:56","58.9","54.1","84","29.76","255","0","0","0.00","0.00"
"00:34:57","58.7","54.1","84.5","29.76","255","0","0","0.00","0.00"
"00:39:58","58.6","54.1","85","29.76","255","0","0","0.00","0.00"
"00:44:58","58.5","54","85","29.76","255","0","0","0.00","0.00"
"00:49:59","58.4","53.9","85","29.76","255","0","0","0.00","0.00"
"00:54:59","58.3","53.8","85","29.76","255","0","0","0.00","0.00"
"00:59:57","58.3","53.8","85","29.76","255","0","0","0.00","0.00"
"01:04:56","58.3","53.8","85","29.76","255","0","0","0.00","0.00"
"01:09:58","58.4","53.9","85","29.76","255","0","0","0.00","0.00"
"01:14:59","58.4","53.9","85","29.76","255","0","0","0.00","0.00"
"01:19:56","58.3","53.8","85","29.75","255","0","0","0.00","0.00"
"01:24:56","58.1","53.8","85.7","29.75","255","0","0","0.00","0.00"
"01:29:56","57.9","53.7","86","29.75","255","0","0","0.00","0.00"
"01:34:57","57.7","53.5","86","29.74","255","0","0","0.00","0.00"
"01:39:58","57.4","53.4","86.3","29.74","255","0","0","0.00","0.00"
"01:44:59","57.2","53.4","87","29.74","255","0.3","1.2","0.00","0.00"
"01:49:59","56.9","53.1","87","29.74","255","0","1.2","0.00","0.00"
"01:54:56","56.8","53","87","29.74","255","0","0","0.00","0.00"
"01:59:56","56.8","53.2","87.7","29.74","255","0.1","1.2","0.00","0.00"
"02:04:58","56.8","53","87","29.74","255","0","1.2","0.00","0.00"
"02:09:56","56.9","53.1","87","29.74","255","0.1","1.2","0.00","0.00"
"02:14:57","56.9","53.1","87","29.75","255","0","0","0.00","0.00"
"02:19:58","57","53.2","87","29.75","255","0","0","0.00","0.00"
"02:24:58","57","53.2","87","29.75","255","0","0","0.00","0.00"
"02:29:59","56.9","53.1","87","29.76","255","0","0","0.00","0.00"
"02:34:59","56.9","53.1","87","29.76","255","0","0","0.00","0.00"
"02:39:56","56.9","53.1","87","29.76","255","0","0","0.00","0.00"
"02:44:57","56.5","53","88","29.76","255","0","0","0.00","0.00"
"02:49:57","56.4","52.9","88","29.75","255","0","0","0.00","0.00"
"02:54:58","56.4","52.9","88","29.75","255","0","0","0.00","0.00"
"02:59:58","56.4","52.9","88","29.75","255","0","0","0.00","0.00"
"03:04:58","56.4","52.9","88","29.74","255","0","0","0.00","0.00"
"03:09:56","56.4","52.9","88","29.74","255","0","0","0.00","0.00"
"03:14:57","56.4","52.9","88","29.74","255","0","0","0.00","0.00"
"03:19:58","56.4","52.9","88","29.74","255","0","0","0.00","0.00"
"03:24:58","56.5","53","88","29.74","255","0","0","0.00","0.00"
"03:29:58","56.5","53","88","29.74","255","0","0","0.00","0.00"
"03:34:59","56.4","52.9","88","29.74","255","0","0","0.00","0.00"
"03:39:56","56.2","52.7","88","29.74","255","0","0","0.00","0.00"
"03:44:57","56.2","52.8","88.2","29.74","255","0","0","0.00","0.00"
"03:49:57","56.1","52.9","88.9","29.73","255","0","0","0.00","0.00"
"03:54:58","56.1","52.9","89","29.73","255","0","0","0.00","0.00"
"03:59:58","56","52.8","89","29.74","255","0","0","0.00","0.00"
"04:04:56","55.9","52.7","89","29.74","255","0","0","0.00","0.00"
"04:09:58","55.8","52.6","89","29.74","255","0","0","0.00","0.00"
"04:14:58","55.8","52.7","89.2","29.74","255","0","0","0.00","0.00"
"04:19:59","55.7","52.8","90","29.73","255","0","0","0.00","0.00"
"04:24:59","55.7","52.8","90","29.73","255","0","0","0.00","0.00"
"04:29:56","55.7","52.8","90","29.73","255","0","0","0.00","0.00"
"04:34:57","55.7","52.8","90","29.73","255","0","0","0.00","0.00"
"04:39:58","55.7","52.8","90","29.73","255","0","0","0.00","0.00"
"04:44:59","55.7","52.8","90","29.73","255","0","0","0.00","0.00"
"04:49:58","55.8","53.2","90.9","29.73","255","0","0","0.00","0.00"
"04:54:59","55.9","53","90","29.73","255","0","0","0.00","0.00"
"04:59:59","55.9","53","90","29.73","255","0","0","0.00","0.00"
"05:04:57","56","53.1","90","29.73","255","0","0","0.00","0.00"
"05:09:56","56","53.1","90","29.73","255","0","0","0.00","0.00"
"05:14:56","55.9","53","90","29.73","255","0","0","0.00","0.00"
"05:19:57","55.9","53","90","29.72","255","0","0","0.00","0.00"
"05:24:57","55.9","53","90","29.72","255","0","0","0.00","0.00"
"05:29:58","55.9","53","90","29.72","255","0","0","0.00","0.00"
"05:34:58","55.8","52.9","90","29.71","255","0","0","0.00","0.00"
"05:39:56","55.8","52.9","90","29.71","255","0","0","0.00","0.00"
"05:44:56","55.7","52.8","90","29.71","255","0","0","0.00","0.00"
"05:49:56","55.6","52.7","90.1","29.71","255","0","0","0.00","0.00"
"05:54:57","55.5","52.9","91","29.71","255","0","0","0.00","0.00"
"05:59:57","55.5","52.9","91","29.71","255","0","0","0.00","0.00"
"06:04:56","55.4","52.8","91","29.71","255","0","0","0.00","0.00"
"06:09:59","55.3","52.7","91","29.71","255","0","0","0.00","0.00"
"06:14:56","55.3","52.7","91","29.71","255","0","0","0.00","0.00"
"06:19:56","55.4","52.8","91","29.71","255","0","0","0.00","0.00"
"06:24:56","55.5","52.9","91","29.71","255","0","0","0.00","0.00"
"06:29:59","55.5","52.9","91","29.71","255","0","0","0.00","0.00"
"06:34:59","55.6","53.1","91.5","29.70","255","0","0","0.00","0.00"
"06:39:59","55.8","53.2","91","29.70","255","0","0","0.00","0.00"
"06:44:59","56","53.4","91.1","29.70","255","0","0","0.00","0.00"
"06:49:59","56.2","53.9","92","29.70","255","0.1","2.4","0.00","0.00"
"06:54:59","56.5","53.9","91","29.70","255","0.2","2.3","0.00","0.00"
"06:59:58","56.8","54","90.4","29.70","255","0","1.2","0.00","0.00"
"07:04:56","57","54.1","90","29.70","255","0","0","0.00","0.00"
"07:09:58","57.1","54.2","90","29.70","255","0","0","0.00","0.00"
"07:14:59","57.3","54.4","90","29.70","255","0","0","0.00","0.00"
"07:19:59","57.5","54.6","90","29.70","255","0.3","3.6","0.00","0.00"
"07:24:58","57.9","54.9","89.5","29.70","265","1.5","3.6","0.00","0.00"
"07:29:58","58.5","55","88.2","29.70","304","1.5","3.6","0.00","0.00"
"07:34:58","59","55.3","87.4","29.70","306","0.2","2.4","0.00","0.00"
"07:39:58","59.6","55.7","87","29.70","306","0.4","2.4","0.00","0.00"
"07:44:58","60.1","55.9","86.1","29.70","306","0.2","2.4","0.00","0.00"
"07:49:58","60.6","56","84.8","29.70","306","0.5","2.4","0.00","0.00"
"07:54:58","61","56.1","83.8","29.70","306","0.9","3.6","0.00","0.00"
"07:59:58","61.5","56.2","82.7","29.71","307","1.6","3.6","0.00","0.00"
"08:04:56","62","56.5","82.4","29.71","308","1.4","3.6","0.00","0.00"
"08:09:58","62.5","57","82.2","29.71","308","0.4","1.2","0.00","0.00"
"08:14:59","63.1","57.4","81.8","29.71","308","0.4","2.4","0.00","0.00"
"08:19:59","63.6","57.6","80.8","29.71","308","1.3","3.6","0.00","0.00"
"08:24:59","64","57.8","80.3","29.71","308","1.3","3.6","0.00","0.00"
"08:29:59","64.4","58","79.8","29.71","303","1.3","3.6","0.00","0.00"
"08:34:56","64.7","58.2","79.4","29.71","296","1.6","3.6","0.00","0.00"
"08:39:56","65.1","58.3","78.8","29.71","296","0.8","3.6","0.00","0.00"
"08:44:57","65.2","58.5","78.9","29.73","324","2.5","6","0.00","0.00"
"08:49:56","65.3","58.3","78.1","29.73","331","3.9","8.4","0.00","0.00"
"08:54:56","65.2","58.3","78.5","29.73","347","2.9","7.2","0.00","0.00"
"08:59:56","65.3","58.4","78.5","29.76","325","5.5","16.1","0.00","0.00"
"09:04:58","65.4","58.5","78.4","29.76","340","4.4","17.3","0.00","0.00"
"09:09:56","65.9","58.2","76.3","29.76","317","3.5","15","0.00","0.00"
"09:14:57","66.7","58.2","74.1","29.76","336","4.7","13.2","0.00","0.00"
"09:19:57","67.8","58.6","72.5","29.76","314","5.1","19.6","0.00","0.00"
"09:24:57","68.2","58","70","29.76","354","7","16.1","0.00","0.00"
"09:29:56","67.7","57.9","70.7","29.77","342","7.2","15","0.00","0.00"
"09:34:57","67.2","57.9","72","29.77","346","6.2","21.9","0.00","0.00"
"09:39:57","67.3","58.3","73.1","29.77","347","6.5","16.1","0.00","0.00"
"09:44:57","67.4","58.3","72.7","29.77","330","6.5","16.1","0.00","0.00"
"09:49:57","67.2","58.5","73.8","29.77","348","4.5","15.6","0.00","0.00"
"09:54:57","67.1","58.6","74.3","29.77","345","3.3","12.7","0.00","0.00"
"09:59:57","66.9","58.6","74.9","29.78","342","3.8","13.2","0.00","0.00"
"10:04:59","66.5","58.3","75","29.78","334","5.9","13.2","0.00","0.00"
"10:09:57","65.9","58.1","75.8","29.78","342","4.2","11.5","0.00","0.00"
"10:14:59","65.7","58.1","76.6","29.78","329","4.6","12","0.00","0.00"
"10:19:59","65.5","58.3","77.4","29.78","341","5.7","16.1","0.00","0.00"
"10:24:59","65.4","58.7","79","29.78","328","4.5","15","0.00","0.00"
"10:29:59","65.3","59.2","80.7","29.78","333","2.3","10.8","0.00","0.00"
"10:34:59","65.1","59.1","81","29.77","281","1.9","6","0.00","0.00"
"10:39:56","64.7","59.2","82.5","29.77","325","0.9","2.4","0.00","0.00"
"10:44:56","64.1","59.3","84.5","29.77","328","0.3","2.3","0.00","0.00"
"10:49:57","63.6","59.3","85.8","29.75","273","1","3.6","0.02","0.02"
"10:54:57","63","59.3","87.6","29.75","173","3.6","10.8","0.03","0.03"
"10:59:57","62.6","59","88.2","29.75","136","5.6","15.6","0.04","0.04"
"11:04:58","62.3","59","89","29.70","172","5.4","15","0.05","0.05"
"11:09:56","62.4","59.1","89","29.70","142","2.6","8.4","0.06","0.05"
"11:14:57","62.6","59.3","89","29.72","191","2.4","6","0.06","0.06"
"11:19:57","62.7","59.4","89","29.72","194","1.2","3.6","0.07","0.07"
"11:24:57","62.8","59.9","90.4","29.72","279","2.2","4.8","0.07","0.07"
"11:29:57","62.8","60.3","91.4","29.72","336","2.4","4.8","0.07","0.07"
"11:34:58","62.9","60.5","92","29.72","286","1.4","4.8","0.07","0.07"
"11:39:59","62.9","60.3","91.3","29.72","326","1.1","4.8","0.07","0.07"
"11:44:59","63.1","60.7","91.8","29.72","327","0.3","2.4","0.07","0.07"
"11:49:59","63.5","61.1","92","29.71","327","0.1","1.2","0.07","0.06"
"11:54:59","63.7","61.3","92","29.71","327","0.3","2.4","0.07","0.05"
"11:59:59","64.2","62.1","93","29.71","327","0.1","2.3","0.07","0.04"
"12:04:57","64.4","61.6","90.6","29.70","327","0.3","2.4","0.07","0.03"
"12:09:59","64.5","61.5","89.8","29.70","327","0.4","2.3","0.07","0.02"
"12:14:56","65","61.9","89.9","29.70","327","0.1","2.4","0.07","0.01"
"12:19:56","65.7","62.1","88","29.69","327","2.7","6","0.07","0.01"
"12:24:56","67.3","63.9","88.7","29.69","342","2.9","7.2","0.07","0.00"
"12:29:56","68.3","63.9","85.9","29.69","345","2.3","7.2","0.07","0.00"
"12:34:59","68.6","63.6","83.9","29.69","292","3.4","8.4","0.07","0.00"
"12:39:56","68.8","64.2","85.1","29.69","301","2.5","7.2","0.07","0.00"
"12:44:56","69.2","63.6","82.4","29.69","341","4","8.4","0.07","0.00"
"12:49:56","69.9","64.4","82.9","29.69","329","3.2","8.4","0.07","0.00"
"12:54:56","70","64.2","81.8","29.69","328","4.3","12","0.08","0.01"
"12:59:56","69.9","64.3","82.3","29.69","321","2.7","7.2","0.08","0.01"
"13:04:58","70.1","64","81.2","29.68","268","2.6","6","0.08","0.01"
"13:09:59","70.2","63.9","80.4","29.68","283","2.9","6","0.08","0.01"
"13:14:59","71.3","65.2","81.1","29.68","338","3.2","7.2","0.08","0.01"
"13:19:57","71.8","64.4","77.5","29.68","331","4","7.2","0.08","0.01"
"13:24:57","71.9","64.5","77.7","29.68","269","3.8","8.4","0.08","0.01"
"13:29:57","72.3","64.9","77.3","29.68","302","4.2","12","0.08","0.01"
"13:34:57","73.3","65.7","77.2","29.67","280","2.7","8.4","0.08","0.01"
"13:39:58","73.9","65.2","74.2","29.67","264","2.5","8.4","0.08","0.01"
"13:44:58","73.3","64.1","73","29.67","229","3.9","9.6","0.08","0.01"
"13:49:58","73.2","64.7","74.7","29.67","224","3.5","8.4","0.08","0.01"
"13:54:58","73.8","65.1","74.5","29.67","226","3.4","7.2","0.08","0.01"
"13:59:58","73.9","64.8","73.1","29.67","199","2.7","6","0.08","0.00"
"14:04:56","74.4","64.6","71.5","29.67","266","2.7","7.2","0.08","0.00"
"14:09:58","74.8","65.7","73.2","29.67","252","1.6","6","0.08","0.00"
"14:14:59","74.3","64.3","71","29.67","323","4.5","10.8","0.08","0.00"
"14:19:59","74","65.1","73.6","29.66","258","2.8","8.1","0.08","0.00"
"14:24:56","74.7","65.3","72.6","29.66","237","3.1","7.2","0.08","0.00"
"14:29:59","75.2","66.1","73.3","29.66","321","2.8","7.2","0.08","0.00"
"14:34:56","76.3","66.9","72.7","29.65","324","2.6","8.4","0.08","0.00"
"14:39:56","76.5","66.5","71.2","29.65","319","2.2","8.1","0.08","0.00"
"14:44:57","76.5","66.8","71.9","29.65","301","3.1","7.2","0.08","0.00"
"14:49:57","76.7","66.6","71.1","29.65","211","3","7.2","0.08","0.00"
"14:54:57","77.1","66.7","70.4","29.65","213","3.5","6","0.08","0.00"
"14:59:57","77.1","66.7","70.4","29.65","323","2.1","8.4","0.08","0.00"
"15:04:59","77.3","66.1","68.5","29.64","311","2.5","7.2","0.08","0.00"
"15:09:57","77.3","65.9","68","29.64","212","2.6","5.8","0.08","0.00"
"15:14:58","77.5","66.2","68.2","29.64","313","1.9","7.2","0.08","0.00"
"15:19:58","77.9","66.3","67.5","29.64","307","3","10.8","0.08","0.00"
"15:24:59","78.6","66.6","66.7","29.64","287","3.1","10.4","0.08","0.00"
"15:29:59","78.5","65.6","64.7","29.64","229","4.2","8.4","0.08","0.00"
"15:34:59","78.7","66.2","65.7","29.64","278","2.3","4.8","0.08","0.00"
"15:39:56","78","65.7","65.8","29.64","314","2.2","4.6","0.08","0.00"
"15:44:56","78","65.9","66.4","29.64","262","2.5","7.2","0.08","0.00"
"15:49:57","78","66.1","66.7","29.64","319","2","8.4","0.08","0.00"
"15:54:57","77.7","65.3","65.7","29.64","335","3.4","8.4","0.08","0.00"
"15:59:57","77.9","65.8","66.4","29.64","296","2.4","6","0.08","0.00"
"16:04:59","77.7","65.9","67.1","29.64","355","2.6","8.4","0.08","0.00"
"16:09:57","77.2","65.7","67.9","29.64","13","1.5","4.8","0.08","0.00"
"16:14:58","77.5","65.9","67.5","29.64","2","3.2","9.6","0.08","0.00"
"16:19:58","78.5","66.7","67.2","29.64","339","2","6","0.08","0.00"
"16:24:56","79","66.4","65.3","29.64","300","2.3","7.2","0.08","0.00"
"16:29:57","78.8","66.5","66.1","29.64","282","2.4","7.2","0.08","0.00"
"16:34:58","79.4","66.9","65.8","29.64","357","2.9","6.9","0.08","0.00"
"16:39:59","78.9","66.3","65.4","29.64","351","2.2","6","0.08","0.00"
"16:44:56","78","65.6","65.8","29.64","355","2.7","10.8","0.08","0.00"
"16:49:56","76.8","66.1","69.6","29.62","345","4","12","0.10","0.01"
"16:54:56","74.8","66.6","75.7","29.62","351","3.2","11.5","0.17","0.08"
"16:59:56","72.6","66.4","80.9","29.65","346","0.9","3.6","0.19","0.11"
"17:04:59","71.4","66.7","85","29.65","346","0","1.2","0.20","0.11"
"17:09:57","70.9","67.4","88.7","29.65","346","0.6","2.4","0.20","0.12"
"17:14:58","71.1","67.9","89.6","29.65","337","1.7","4.8","0.20","0.12"
"17:19:58","71.9","68.5","88.9","29.64","352","2.5","6","0.20","0.12"
"17:24:59","72.8","68.8","87.3","29.64","349","2.5","5.8","0.20","0.12"
"17:29:59","73.5","69.1","86","29.64","348","1.1","4.8","0.20","0.12"
"17:34:59","74.1","69.4","85.4","29.64","348","0.5","2.4","0.20","0.12"
"17:39:56","74.6","69.2","83.4","29.64","348","0.7","4.8","0.20","0.12"
"17:44:56","74.9","68.8","81.6","29.65","346","0.7","4.6","0.20","0.12"
"17:49:56","75.2","68.8","80.6","29.65","339","0.3","2.4","0.20","0.12"
"17:54:56","75.5","69.8","82.4","29.65","339","0.8","3.6","0.20","0.10"
"17:59:57","75.7","69.5","81","29.65","339","0.7","3.6","0.20","0.03"
"18:04:59","75.7","68.4","78.2","29.65","339","1.3","4.8","0.20","0.01"
"18:09:57","75.6","68.1","77.3","29.65","340","1.8","3.6","0.20","0.00"
"18:14:58","75.7","68","77.2","29.65","324","1.1","4.8","0.20","0.00"
"18:19:58","75.6","67.1","75","29.65","320","1.6","3.6","0.20","0.00"
"18:24:58","75.6","67.2","75.3","29.65","319","1","3.6","0.20","0.00"
"18:29:58","75.6","66.8","74.2","29.66","317","1.8","4.8","0.20","0.00"
"18:34:58","75.5","66.1","72.9","29.66","335","2.2","7.2","0.20","0.00"
"18:39:59","75.4","65.7","72.2","29.66","355","1.7","6","0.20","0.00"
"18:44:59","75.2","66","73.2","29.67","355","1.3","5.8","0.20","0.00"
"18:49:59","75","65.4","72","29.67","355","1.5","4.8","0.20","0.00"
"18:54:56","74.8","65.2","72","29.67","339","2.8","7.2","0.20","0.00"
"18:59:56","74.3","65.1","72.9","29.67","343","2.8","6","0.20","0.00"
"19:04:58","73.9","64.4","72.3","29.67","351","2.6","7.2","0.20","0.00"
"19:09:57","73.6","64","72","29.67","0","1.5","7.2","0.20","0.00"
"19:14:58","73.3","63.8","72.2","29.67","344","4.1","13.2","0.20","0.00"
"19:19:58","73.1","63.4","71.8","29.67","333","4.8","15","0.20","0.00"
"19:24:58","72.8","61.7","68.3","29.67","345","5.1","13.2","0.20","0.00"
"19:29:58","72.6","60.8","66.6","29.68","336","4.1","9.6","0.20","0.00"
"19:34:59","72.4","60.5","66.4","29.68","318","4.9","13.2","0.20","0.00"
"19:39:59","72","60.8","67.9","29.68","274","4.3","14.4","0.20","0.00"
"19:44:59","71.2","60.8","69.7","29.68","337","4","10.8","0.20","0.00"
"19:49:56","70.7","61.3","72.1","29.68","318","2","4.8","0.20","0.00"
"19:54:56","70.2","61.5","74.1","29.68","321","1.4","3.6","0.20","0.00"
"19:59:56","69.7","61.6","75.5","29.69","309","1.2","4.8","0.20","0.00"
"20:04:58","69.2","61.7","77","29.69","294","1","6","0.20","0.00"
"20:09:56","68.7","61.6","77.9","29.69","288","1.3","4.8","0.20","0.00"
"20:14:58","68.4","61.3","78","29.69","307","1.7","4.8","0.20","0.00"
"20:19:59","68.2","61.4","79","29.69","330","2","6","0.20","0.00"
"20:24:59","67.9","61.2","79.3","29.69","243","1.3","3.6","0.20","0.00"
"20:29:56","67.6","61.2","80","29.69","341","1","4.8","0.20","0.00"
"20:34:57","67.2","61.1","80.6","29.69","8","1.3","4.8","0.20","0.00"
"20:39:58","67","61","81.2","29.69","357","1.6","4.8","0.20","0.00"
"20:44:59","66.7","61","82","29.69","355","0.7","4.8","0.20","0.00"
"20:49:57","66.3","60.8","82.7","29.69","355","0.1","2.4","0.20","0.00"
"20:54:57","65.8","60.8","83.7","29.69","355","0.5","2.4","0.20","0.00"
"20:59:58","65.5","60.7","84.5","29.70","355","0.5","2.4","0.20","0.00"
"21:04:56","65.3","60.7","85","29.70","351","1.1","4.8","0.20","0.00"
"21:09:58","65.2","60.6","85","29.70","272","1.2","6","0.20","0.00"
"21:14:59","65.2","60.7","85.2","29.71","286","1.3","5.8","0.20","0.00"
"21:19:56","65.4","60.8","85","29.71","250","1.4","4.8","0.20","0.00"
"21:24:57","65.5","60.8","84.7","29.71","344","1.6","6","0.20","0.00"
"21:29:57","65.8","60.8","84","29.72","338","0.8","2.4","0.20","0.00"
"21:34:58","65.8","60.8","83.8","29.72","347","1.5","7.2","0.20","0.00"
"21:39:59","65.9","60.9","83.8","29.72","316","1.2","4.8","0.20","0.00"
"21:44:56","65.9","60.9","84","29.72","316","0.8","4.8","0.20","0.00"
"21:49:56","65.8","60.8","84","29.72","321","1.8","6","0.20","0.00"
"21:54:57","65.7","60.7","84","29.72","343","1.6","4.8","0.20","0.00"
"21:59:57","65.7","60.7","84","29.74","2","1.7","4.8","0.20","0.00"
"22:04:59","65.7","60.7","84","29.74","339","1.4","6","0.20","0.00"
"22:09:57","65.8","60.8","84","29.74","333","1.3","5.8","0.20","0.00"
"22:14:59","65.7","60.7","84","29.74","349","1.5","6","0.20","0.00"
"22:19:59","65.6","60.6","84","29.74","355","1","4.6","0.20","0.00"
"22:24:56","65.5","60.7","84.4","29.74","355","0.2","2.4","0.20","0.00"
"22:29:56","65.4","60.8","85","29.75","355","0.3","3.6","0.20","0.00"
"22:34:57","65.2","60.6","85","29.75","355","0.4","3.6","0.20","0.00"
"22:39:57","64.9","60.3","85","29.75","355","0.8","3.5","0.20","0.00"
"22:44:58","64.7","60.1","85","29.75","355","1.3","3.6","0.20","0.00"
"22:49:59","64.6","60","85","29.75","354","1.4","3.6","0.20","0.00"
"22:54:59","64.4","59.8","85","29.75","352","0.9","4.8","0.20","0.00"
"22:59:57","64.4","59.8","85","29.75","351","0.7","3.6","0.20","0.00"
"23:04:59","64.4","59.8","85","29.75","350","1.1","3.6","0.20","0.00"
"23:09:57","64.5","59.9","85","29.75","350","1.1","3.6","0.20","0.00"
"23:14:58","64.5","59.9","85","29.75","350","0.5","2.4","0.20","0.00"
"23:19:59","64.6","60","85","29.75","350","1.2","4.8","0.20","0.00"
"23:24:59","64.6","60","85","29.75","349","1.5","6","0.20","0.00"
"23:29:56","64.7","60.1","85","29.75","332","1.9","4.8","0.20","0.00"
"23:34:56","64.7","60.1","85","29.75","330","1.8","7.2","0.20","0.00"
"23:39:57","64.7","59.8","84.1","29.75","0","1","6.9","0.20","0.00"
"23:44:57","64.7","59.8","84","29.75","301","1.9","6","0.20","0.00"
"23:49:58","64.7","59.8","84","29.75","286","1.4","3.6","0.20","0.00"
"23:54:59","64.5","59.8","85","29.75","273","1.7","6","0.20","0.00"
